CAPE
283 198 275 502 468 326 545 763 963 1065 968 1169 1257 783 415 773 747 265 546 309 84 158 868 344 1354 1579 2137 1722 1644 1522 1530 1350 1197
0 115 178 511 544 433 534 854 1022 1256 1001 944 1034 1204 697 860 732 922 786 479 725 106 78 1042 385 1015 1849 2091 1810 1898 1670 1609 1248
0 0 0 349 633 658 661 851 1119 1449 1270 1174 958 1294 1104 891 788 592 1271 600 787 1063 1114 1115 799 1692 1819 1740 1626 1483 1729 1609 1303
0 0 14 322 743 908 745 927 1232 1624 1508 1371 1153 1188 1180 1099 968 1073 987 1588 1086 835 1464 674 1095 1468 1595 1502 1462 1613 1817 1538 1253
17 4 4 59 756 1053 872 1143 1355 1786 1741 1695 1445 1114 1286 1418 1158 1102 1195 1113 1137 1354 875 1348 1434 1568 1275 1388 1657 1763 1673 1556 1435
4 2 0 53 1158 1174 1069 1230 1444 1973 1905 2004 1812 1282 1314 1360 1382 1218 1200 1129 927 796 1465 987 889 978 1836 1491 1307 1356 1539 1659 1372
22 46 269 299 1464 1348 1198 1337 1386 1823 2020 2103 2087 1795 1463 1290 1314 1428 1226 1149 1151 740 1104 1357 972 1067 1309 2015 2008 2194 1962 1956 1780
0 409 678 581 1874 1833 1413 1291 1521 1576 1943 2032 2152 2062 1798 1677 1328 1477 1304 1301 1493 1307 1294 1539 1441 1324 1677 2012 1768 1819 1886 1855 1807
579 1048 558 1276 2578 2730 2005 1740 2159 1815 1776 1994 2247 2147 2106 1943 2013 1752 1931 1681 1921 1838 1697 2260 1990 1973 1938 2018 2256 83 5 97 172
1336 1504 1502 2124 2637 2911 2889 2257 2145 2711 2067 2219 2246 2264 2364 2186 2437 2293 2247 2556 2400 2924 2353 2128 2651 2203 2286 2389 461 0 7 0 0
1020 1047 1377 1804 2758 3024 2809 3380 2913 2681 3084 2661 2570 3024 2500 2851 2627 2677 2671 3077 3115 2866 3140 2722 2737 2810 2563 1670 2 0 0 0 0
1310 1357 1415 2000 2568 3489 3279 3094 3223 3280 3439 3563 3468 3249 3556 3303 3002 3118 3015 3284 3289 3302 3197 3080 2994 2712 2042 0 1 0 0 0 0
754 1218 1709 1949 2185 2901 4224 3311 3632 3412 3417 3462 4111 3482 4006 3847 3728 3443 3481 3498 3412 3209 2917 2562 2093 904 491 10 0 0 0 0 0
701 979 1310 1417 2184 3203 3639 3667 4032 3606 3936 3609 3692 3817 3887 3486 3341 3044 2934 1975 1730 1351 1151 898 361 199 22 0 0 0 0 0 0
725 978 710 789 1911 3321 3485 3344 3851 3825 3002 2508 2174 1977 1595 1089 977 793 597 564 375 324 231 9 0 0 0 0 0 0 0 0 0
493 659 848 615 1276 3661 3653 3693 3334 2059 1815 1661 1122 803 532 462 328 218 216 255 291 317 48 0 0 0 0 0 0 0 0 0 0
147 375 710 840 783 3003 3051 2814 2478 1466 1381 1341 857 387 235 126 24 0 0 0 0 0 0 0 0 0 0 0 0 0 0 0 0
199 135 376 800 996 1720 2606 2343 1350 1255 1085 986 629 236 58 1 0 0 0 0 0 0 0 0 0 0 0 0 0 0 0 0 0
39 222 175 357 704 1514 1189 545 1180 896 799 805 574 253 5 0 0 0 0 0 0 0 0 0 0 0 0 0 0 0 0 0 0
20 168 469 519 605 1766 934 0 656 842 632 715 363 254 23 0 0 0 0 0 0 0 0 0 0 0 0 0 0 0 0 0 0
CIN
-75 -90 -130 -157 -186 -219 -286 -302 -282 -254 -229 -164 -113 -127 -141 -52 -35 -77 -50 -84 -121 -107 -66 -91 -51 -43 -50 -58 -52 -52 -49 -57 -49
0 -82 -107 -135 -166 -225 -287 -323 -314 -286 -278 -201 -159 -109 -124 -63 -49 -25 -38 -70 -58 -120 -134 -83 -81 -61 -57 -80 -48 -44 -39 -42 -53
0 0 0 -155 -162 -230 -292 -323 -319 -301 -287 -252 -209 -118 -97 -89 -81 -79 -40 -67 -75 -53 -44 -40 -86 -92 -78 -43 -51 -50 -40 -43 -64
0 0 -55 -152 -163 -211 -253 -298 -318 -311 -278 -251 -212 -158 -121 -90 -86 -60 -59 -49 -60 -68 -47 -65 -66 -46 -42 -46 -41 -36 -33 -43 -54
-78 -17 -101 -108 -211 -220 -247 -293 -287 -300 -267 -241 -236 -207 -149 -105 -103 -76 -62 -80 -89 -75 -78 -72 -65 -78 -72 -48 -34 -31 -45 -48 -35
-109 -25 0 -117 -217 -192 -229 -256 -249 -269 -253 -232 -215 -213 -175 -130 -119 -121 -111 -122 -130 -140 -83 -101 -100 -96 -62 -78 -72 -53 -54 -51 -47
-87 -64 -117 -103 -177 -184 -209 -238 -239 -232 -235 -223 -207 -193 -181 -174 -162 -148 -151 -147 -142 -176 -135 -104 -135 -118 -98 -55 -53 -35 -37 -32 -37
0 -78 -75 -81 -104 -220 -245 -286 -255 -215 -213 -222 -203 -184 -175 -186 -192 -158 -163 -167 -157 -154 -139 -106 -113 -110 -80 -50 -47 -29 -31 -29 -32
-53 -33 -64 -60 -92 -173 -218 -211 -224 -215 -211 -217 -194 -184 -177 -172 -168 -162 -148 -145 -120 -128 -125 -80 -92 -80 -70 -44 -16 -367 -184 -326 -270
-154 -129 -106 -67 -77 -117 -159 -183 -178 -198 -207 -231 -213 -186 -169 -188 -161 -151 -136 -102 -91 -48 -88 -86 -52 -70 -66 -43 -270 0 -195 0 0
-136 -147 -158 -133 -82 -108 -148 -163 -165 -168 -173 -177 -175 -155 -164 -146 -141 -125 -112 -70 -52 -52 -43 -49 -47 -36 -41 -88 -228 0 0 0 0
-145 -127 -132 -135 -107 -55 -129 -142 -168 -130 -106 -133 -111 -125 -111 -129 -119 -93 -82 -54 -39 -35 -32 -37 -36 -33 -55 0 0 0 0 0 0
-162 -155 -138 -105 -93 -78 -56 -122 -128 -126 -114 -94 -70 -87 -76 -82 -72 -65 -50 -43 -42 -41 -29 -41 -68 -164 -170 -51 0 0 0 0 0
-168 -151 -178 -157 -92 -53 -64 -64 -85 -101 -84 -83 -120 -100 -74 -113 -110 -126 -123 -221 -233 -272 -257 -233 -302 -279 -246 0 0 0 0 0 0
-136 -155 -200 -285 -75 -44 -49 -56 -64 -70 -227 -320 -389 -411 -448 -542 -547 -548 -560 -498 -510 -466 -401 -262 0 0 0 0 0 0 0 0 0
-116 -171 -189 -244 -176 -34 -48 -45 -137 -349 -378 -414 -531 -602 -653 -655 -679 -688 -625 -537 -449 -355 -403 -13 0 0 0 0 0 0 0 0 0
-95 -130 -142 -180 -227 -35 -57 -106 -188 -349 -358 -388 -509 -628 -664 -708 -797 0 0 0 0 0 0 0 0 0 0 0 0 0 0 0 0
-100 -131 -156 -166 -173 -126 -71 -125 -313 -315 -327 -325 -440 -567 -657 -173 0 0 0 0 0 0 0 0 0 0 0 0 0 0 0 0 0
-168 -71 -136 -143 -141 -73 -74 -172 -84 -254 -325 -330 -397 -474 -297 0 0 0 0 0 0 0 0 0 0 0 0 0 0 0 0 0 0
-106 -86 -38 -60 -93 -38 -45 0 -110 -110 -286 -312 -413 -421 -380 0 0 0 0 0 0 0 0 0 0 0 0 0 0 0 0 0 0
Wind_Speed
16 13 16 24 23 21 20 24 22 21 19 16 14 14 13 9 8 8 6 6 5 4 4 5 4 7 6 7 7 5 4 3 3
9 14 16 22 22 21 19 23 23 22 20 17 16 15 11 9 10 7 7 7 6 5 7 5 8 7 8 7 6 5 5 4 4
7 8 11 16 20 20 18 22 20 21 20 20 18 15 12 11 9 8 6 6 7 7 6 4 5 5 6 6 6 6 6 4 4
8 10 10 10 17 18 19 19 20 19 18 17 16 15 14 12 10 9 9 6 7 7 5 6 7 7 7 7 6 7 6 7 6
9 9 8 7 13 19 19 20 19 19 18 17 16 16 14 13 12 10 11 10 7 7 8 6 6 7 7 7 6 6 6 7 6
8 9 8 4 9 17 18 18 18 18 18 17 16 15 13 14 12 14 14 13 12 7 7 8 7 6 7 7 7 7 6 6 6
8 8 8 3 7 14 17 16 18 16 17 17 17 16 15 15 15 15 14 12 10 11 8 7 8 7 8 7 7 7 6 7 7
4 6 8 4 6 9 15 13 14 15 16 17 17 16 16 15 15 13 13 10 12 12 11 11 10 9 7 7 7 7 7 6 6
6 6 8 6 8 10 15 16 12 16 15 14 16 16 16 15 13 14 13 13 11 12 13 10 10 11 10 7 4 9 9 7 3
7 8 6 2 9 9 11 15 15 12 14 12 13 15 14 15 13 14 14 11 12 11 13 12 10 11 9 9 7 11 9 7 2
8 8 8 9 1 6 8 10 10 9 10 12 13 11 13 12 14 14 10 8 9 10 8 11 9 8 8 5 4 10 5 4 3
6 7 6 5 7 3 6 9 10 11 8 9 8 10 9 10 12 10 9 8 8 6 6 7 10 8 5 9 6 7 6 5 3
9 8 4 5 8 5 7 6 8 10 8 8 8 7 8 8 8 10 10 9 9 7 6 6 3 5 4 7 9 8 7 5 3
6 4 9 6 6 7 5 6 7 7 8 7 6 6 6 6 4 6 5 5 4 4 4 6 5 5 7 6 10 11 8 7 3
8 7 9 14 4 5 5 5 7 7 9 6 8 10 10 8 8 7 6 10 6 7 6 4 2 5 5 4 6 11 9 7 3
7 7 7 6 7 3 4 5 8 10 7 10 11 11 10 9 9 7 6 8 7 5 5 0 4 4 2 5 5 4 7 5 4
7 6 6 5 8 7 2 6 8 8 7 8 11 12 11 9 9 8 7 5 5 5 5 4 3 3 6 7 4 4 3 0 2
7 8 6 5 6 9 5 8 11 8 7 5 7 9 10 9 8 7 6 6 4 6 3 5 3 5 2 5 4 2 3 3 2
6 9 8 5 5 6 8 13 2 9 10 8 9 7 7 7 7 6 5 5 5 11 6 7 14 12 4 3 4 6 7 5 3
9 9 9 6 4 5 17 6 12 6 8 10 9 8 8 7 8 7 7 5 5 6 3 7 5 3 9 9 10 9 9 0 6
Wind_Direction
185 182 167 173 177 175 166 168 167 168 170 168 169 177 189 195 190 196 200 190 185 212 201 207 186 209 198 201 205 219 218 208 241
186 177 177 170 173 173 166 169 169 168 170 174 175 177 182 189 192 184 196 203 196 201 225 197 204 195 198 194 202 206 218 231 245
166 152 154 156 172 171 169 170 166 166 170 172 176 176 182 190 189 201 193 203 220 201 201 172 182 171 182 199 216 221 208 226 235
154 141 136 146 170 170 167 167 165 166 169 169 174 179 183 191 196 196 211 208 210 213 212 202 178 187 191 206 220 225 215 219 219
111 124 151 163 152 163 166 165 167 166 168 171 176 180 182 190 191 200 203 219 220 210 203 210 198 186 189 198 207 213 205 209 210
157 155 152 144 134 162 165 166 166 165 171 174 174 175 179 188 189 196 207 212 218 213 206 206 208 207 208 206 210 219 224 217 223
164 156 166 168 141 160 164 162 169 165 172 174 174 177 182 188 199 198 205 207 205 213 210 200 201 207 209 204 205 209 216 219 224
238 146 148 157 156 150 161 158 166 171 171 175 176 179 186 192 198 199 203 203 199 205 208 212 205 208 214 208 212 218 219 228 237
96 112 122 188 155 150 160 167 164 175 177 172 175 181 188 192 189 196 198 206 208 204 210 206 200 208 212 210 201 131 139 157 218
47 44 25 348 168 164 160 171 172 168 179 165 169 182 186 187 186 194 202 199 203 200 207 206 199 207 197 200 148 184 168 163 183
41 27 16 356 219 167 164 157 164 156 153 168 173 173 187 182 188 196 193 185 198 206 194 203 202 202 201 167 143 153 159 110 65
32 43 357 358 335 158 173 156 162 153 154 158 161 177 169 172 180 177 185 195 198 199 192 200 205 209 174 123 158 185 157 119 89
25 2 8 5 326 322 137 173 149 151 161 158 165 170 166 162 164 177 190 189 202 213 217 224 171 77 58 114 134 203 191 126 95
12 23 357 351 358 313 132 113 127 142 142 163 151 135 135 119 131 122 129 88 56 78 70 91 105 129 139 145 154 189 181 107 91
3 12 0 357 24 287 153 141 140 134 113 114 97 95 97 94 96 96 96 102 98 98 101 90 161 149 178 163 133 131 138 153 151
347 19 347 357 322 211 144 105 120 121 128 116 106 99 101 108 106 101 98 104 98 88 61 320 165 169 131 104 81 108 145 150 238
324 328 324 318 340 258 192 73 95 114 129 123 124 122 120 117 111 104 89 82 83 92 77 66 329 324 95 102 121 91 68 11 310
311 304 305 325 30 317 179 144 134 131 127 138 124 124 127 122 121 113 98 68 86 107 87 123 106 73 33 92 85 93 201 223 304
286 283 281 317 11 13 360 353 132 140 144 138 131 148 135 131 123 116 106 112 89 40 49 127 129 135 117 92 107 163 224 221 288
260 268 268 267 264 191 148 183 269 189 164 131 143 171 144 135 137 136 138 135 138 134 26 32 38 139 160 178 164 215 239 272 342